QTR1188 OTHH-OEJN

Flight info

Callsign QTR1188
Flight time 2h 1m
Altitude 36000
Route SALWA M430 KIA G782 RGB M309 VEMEM
Aircraft B77W/H-SDE2E3FGHIJ1RWXY/LB1

Departure

Time 2026-05-06 15:46
Airport Hamad International Airport (OTHH)

Arrival

Time 2026-05-06 17:47
Airport King Abdulaziz International Airport (OEJN)
Time Latitude Longitude Altitude Speed Heading
2026-05-06 14:58 25.26462 51.61106 29 ft 0 kts 68°
2026-05-06 15:33 25.26459 51.61097 29 ft 3 kts 68°
2026-05-06 15:33 25.26452 51.61078 27 ft 3 kts 68°
2026-05-06 15:33 25.26445 51.61059 30 ft 3 kts 68°
2026-05-06 15:34 25.26442 51.61051 30 ft 0 kts 63°
2026-05-06 15:34 25.26437 51.61032 30 ft 3 kts 96°
2026-05-06 15:34 25.26443 51.61011 30 ft 3 kts 133°
2026-05-06 15:34 25.26455 51.61000 29 ft 3 kts 148°
2026-05-06 15:35 25.26471 51.60989 30 ft 2 kts 148°
2026-05-06 15:35 25.26483 51.60981 30 ft 2 kts 149°
2026-05-06 15:35 25.26487 51.60978 30 ft 0 kts 158°
2026-05-06 15:35 25.26499 51.60973 30 ft 0 kts 158°
2026-05-06 15:40 25.26491 51.60976 28 ft 3 kts 160°
2026-05-06 15:40 25.26472 51.60980 27 ft 5 kts 176°
2026-05-06 15:40 25.26419 51.60949 30 ft 8 kts 214°
2026-05-06 15:40 25.26383 51.60935 28 ft 8 kts 188°
2026-05-06 15:41 25.26324 51.60936 29 ft 8 kts 186°
2026-05-06 15:41 25.26278 51.60902 28 ft 8 kts 232°
2026-05-06 15:41 25.26250 51.60845 28 ft 8 kts 244°
2026-05-06 15:41 25.26227 51.60786 28 ft 8 kts 248°
2026-05-06 15:42 25.26206 51.60726 29 ft 8 kts 248°
2026-05-06 15:42 25.26184 51.60666 27 ft 8 kts 248°
2026-05-06 15:42 25.26162 51.60606 27 ft 8 kts 248°
2026-05-06 15:42 25.26141 51.60546 28 ft 8 kts 245°
2026-05-06 15:43 25.26095 51.60511 29 ft 8 kts 188°
2026-05-06 15:43 25.26039 51.60527 30 ft 8 kts 159°
2026-05-06 15:43 25.25984 51.60551 28 ft 8 kts 159°
2026-05-06 15:43 25.25929 51.60574 28 ft 8 kts 159°
2026-05-06 15:44 25.25875 51.60597 29 ft 8 kts 159°
2026-05-06 15:44 25.25820 51.60621 29 ft 8 kts 158°
2026-05-06 15:44 25.25765 51.60644 28 ft 8 kts 165°
2026-05-06 15:44 25.25714 51.60623 30 ft 8 kts 231°
2026-05-06 15:45 25.25690 51.60564 27 ft 8 kts 253°
2026-05-06 15:45 25.25688 51.60500 29 ft 8 kts 287°
2026-05-06 15:45 25.25736 51.60454 30 ft 15 kts 334°
2026-05-06 15:45 25.25977 51.60348 27 ft 75 kts 338°
2026-05-06 15:46 25.26758 51.60005 29 ft 164 kts 339°
2026-05-06 15:46 25.28000 51.59498 346 ft 207 kts 340°
2026-05-06 15:46 25.29388 51.58889 1044 ft 217 kts 340°
2026-05-06 15:46 25.30822 51.58313 1816 ft 220 kts 340°
2026-05-06 15:47 25.32250 51.57660 2487 ft 227 kts 340°
2026-05-06 15:47 25.33730 51.56974 3142 ft 233 kts 340°
2026-05-06 15:47 25.35262 51.56275 3704 ft 242 kts 340°
2026-05-06 15:47 25.36815 51.55575 4378 ft 245 kts 340°
2026-05-06 15:48 25.38413 51.54859 5054 ft 249 kts 340°
2026-05-06 15:48 25.40045 51.54130 5746 ft 254 kts 340°
2026-05-06 15:48 25.41680 51.53402 6409 ft 258 kts 339°
2026-05-06 15:48 25.43364 51.52654 7074 ft 261 kts 339°
2026-05-06 15:49 25.45030 51.51834 7710 ft 262 kts 325°
2026-05-06 15:49 25.46168 51.50306 8359 ft 264 kts 291°
2026-05-06 15:49 25.46411 51.48296 9056 ft 265 kts 266°
2026-05-06 15:49 25.46104 51.46284 9764 ft 265 kts 259°
2026-05-06 15:50 25.45706 51.44301 10396 ft 266 kts 259°
2026-05-06 15:50 25.45286 51.42316 11024 ft 268 kts 258°
2026-05-06 15:50 25.44851 51.40286 11688 ft 271 kts 258°
2026-05-06 15:50 25.44415 51.38243 12226 ft 280 kts 258°
2026-05-06 15:51 25.43961 51.36104 12707 ft 292 kts 258°
2026-05-06 15:51 25.43486 51.33854 13134 ft 308 kts 258°
2026-05-06 15:51 25.42985 51.31482 13566 ft 324 kts 257°
2026-05-06 15:51 25.42454 51.29021 13944 ft 340 kts 258°
2026-05-06 15:52 25.41891 51.26403 14331 ft 357 kts 258°
2026-05-06 15:52 25.41306 51.23660 14706 ft 373 kts 258°
2026-05-06 15:52 25.40708 51.20832 15105 ft 388 kts 258°
2026-05-06 15:52 25.40087 51.17878 15495 ft 397 kts 257°
2026-05-06 15:53 25.39458 51.14876 15969 ft 402 kts 257°
2026-05-06 15:53 25.38820 51.11829 16535 ft 409 kts 257°
2026-05-06 15:53 25.38179 51.08762 17173 ft 413 kts 257°
2026-05-06 15:53 25.37530 51.05659 17813 ft 414 kts 257°
2026-05-06 15:54 25.36883 51.02568 18417 ft 418 kts 257°
2026-05-06 15:54 25.36232 50.99466 19030 ft 418 kts 257°
2026-05-06 15:54 25.35582 50.96364 19723 ft 417 kts 257°
2026-05-06 15:54 25.34924 50.93233 20435 ft 417 kts 257°
2026-05-06 15:55 25.34265 50.90100 21291 ft 415 kts 257°
2026-05-06 15:55 25.33617 50.87018 22132 ft 413 kts 257°
2026-05-06 15:55 25.32973 50.83964 23025 ft 410 kts 257°
2026-05-06 15:55 25.32323 50.80884 23686 ft 413 kts 256°
2026-05-06 15:56 25.31663 50.77756 24084 ft 419 kts 256°
2026-05-06 15:56 25.31002 50.74633 24551 ft 424 kts 256°
2026-05-06 15:56 25.30326 50.71437 25017 ft 428 kts 256°
2026-05-06 15:56 25.29643 50.68213 25491 ft 432 kts 256°
2026-05-06 15:57 25.28950 50.64945 25975 ft 435 kts 256°
2026-05-06 15:57 25.28263 50.61708 26452 ft 438 kts 256°
2026-05-06 15:57 25.27565 50.58420 26948 ft 440 kts 256°
2026-05-06 15:57 25.26861 50.55096 27447 ft 442 kts 257°
2026-05-06 15:58 25.26358 50.51778 27945 ft 444 kts 262°
2026-05-06 15:58 25.26100 50.48370 28466 ft 446 kts 266°
2026-05-06 15:58 25.26121 50.44918 28988 ft 447 kts 269°
2026-05-06 15:58 25.26206 50.41516 29523 ft 447 kts 269°
2026-05-06 15:59 25.26298 50.38050 30030 ft 448 kts 269°
2026-05-06 15:59 25.26384 50.34651 30480 ft 447 kts 269°
2026-05-06 15:59 25.26466 50.31193 30944 ft 446 kts 269°
2026-05-06 15:59 25.26540 50.27792 31415 ft 445 kts 269°
2026-05-06 16:00 25.26611 50.24373 31889 ft 443 kts 269°
2026-05-06 16:00 25.26678 50.20994 32366 ft 441 kts 269°
2026-05-06 16:00 25.26744 50.17584 32865 ft 438 kts 269°
2026-05-06 16:00 25.26807 50.14264 33359 ft 435 kts 269°
2026-05-06 16:01 25.26870 50.10917 33857 ft 432 kts 269°
2026-05-06 16:01 25.26932 50.07638 34292 ft 429 kts 269°
2026-05-06 16:01 25.26993 50.04337 34735 ft 425 kts 269°
2026-05-06 16:01 25.27052 50.01105 35181 ft 422 kts 269°
2026-05-06 16:02 25.27109 49.97920 35624 ft 418 kts 268°
2026-05-06 16:02 25.27166 49.94738 35860 ft 420 kts 268°
2026-05-06 16:02 25.27277 49.88179 35838 ft 430 kts 268°
2026-05-06 16:03 25.27390 49.81517 35853 ft 439 kts 268°
2026-05-06 16:03 25.27504 49.74715 35849 ft 443 kts 268°
2026-05-06 16:04 25.27615 49.67890 35856 ft 445 kts 268°
2026-05-06 16:04 25.27723 49.61075 35857 ft 444 kts 268°
2026-05-06 16:05 25.27827 49.54306 35855 ft 441 kts 268°
2026-05-06 16:05 25.27849 49.47528 35847 ft 437 kts 264°
2026-05-06 16:06 25.27265 49.40888 35847 ft 432 kts 262°
2026-05-06 16:06 25.26646 49.34330 35847 ft 431 kts 262°
2026-05-06 16:07 25.26040 49.27739 35863 ft 430 kts 262°
2026-05-06 16:07 25.25439 49.21156 35862 ft 431 kts 262°
2026-05-06 16:08 25.24834 49.14559 35858 ft 432 kts 262°
2026-05-06 16:08 25.24225 49.07975 35856 ft 433 kts 262°
2026-05-06 16:09 25.23611 49.01364 35871 ft 434 kts 262°
2026-05-06 16:09 25.22999 48.94800 35853 ft 435 kts 262°
2026-05-06 16:10 25.22377 48.88157 35866 ft 436 kts 262°
2026-05-06 16:10 25.21750 48.81498 35852 ft 436 kts 262°
2026-05-06 16:11 25.21121 48.74845 35869 ft 436 kts 262°
2026-05-06 16:11 25.20487 48.68173 35894 ft 436 kts 262°
2026-05-06 16:12 25.19853 48.61532 35862 ft 434 kts 261°
2026-05-06 16:12 25.19217 48.54904 35864 ft 433 kts 261°
2026-05-06 16:13 25.18580 48.48313 35864 ft 432 kts 261°
2026-05-06 16:13 25.17941 48.41729 35862 ft 431 kts 261°
2026-05-06 16:14 25.17299 48.35143 35880 ft 431 kts 261°
2026-05-06 16:14 25.16654 48.28548 35885 ft 432 kts 261°
2026-05-06 16:15 25.16007 48.21973 35893 ft 433 kts 261°
2026-05-06 16:15 25.15355 48.15369 35879 ft 434 kts 261°
2026-05-06 16:16 25.14698 48.08748 35886 ft 434 kts 261°
2026-05-06 16:16 25.14036 48.02097 35888 ft 435 kts 261°
2026-05-06 16:17 25.13379 47.95537 35890 ft 435 kts 261°
2026-05-06 16:17 25.12712 47.88898 35897 ft 435 kts 261°
2026-05-06 16:18 25.11967 47.82284 35909 ft 434 kts 257°
2026-05-06 16:18 25.10604 47.75828 35904 ft 432 kts 254°
2026-05-06 16:19 25.09189 47.69407 35907 ft 431 kts 255°
2026-05-06 16:19 25.07790 47.62981 35930 ft 430 kts 255°
2026-05-06 16:20 25.06401 47.56579 35923 ft 428 kts 255°
2026-05-06 16:20 25.05018 47.50223 35914 ft 426 kts 255°
2026-05-06 16:21 25.03629 47.43860 35921 ft 424 kts 255°
2026-05-06 16:21 25.02253 47.37583 35928 ft 423 kts 255°
2026-05-06 16:22 25.00870 47.31281 35926 ft 423 kts 255°
2026-05-06 16:22 24.99482 47.24968 35933 ft 423 kts 255°
2026-05-06 16:23 24.98093 47.18665 35936 ft 424 kts 255°
2026-05-06 16:23 24.96697 47.12339 35935 ft 425 kts 255°
2026-05-06 16:24 24.95297 47.06013 35933 ft 426 kts 255°
2026-05-06 16:24 24.93913 46.99768 35934 ft 426 kts 254°
2026-05-06 16:25 24.92503 46.93418 35933 ft 427 kts 254°
2026-05-06 16:25 24.91085 46.87047 35959 ft 427 kts 254°
2026-05-06 16:26 24.89665 46.80680 35962 ft 427 kts 254°
2026-05-06 16:26 24.87935 46.74478 35969 ft 425 kts 247°
2026-05-06 16:27 24.85437 46.68554 35969 ft 424 kts 244°
2026-05-06 16:27 24.82881 46.62722 35960 ft 424 kts 244°
2026-05-06 16:28 24.80331 46.56877 35953 ft 424 kts 244°
2026-05-06 16:28 24.78201 46.51985 35950 ft 424 kts 244°
2026-05-06 16:29 24.75667 46.46166 35943 ft 424 kts 244°
2026-05-06 16:29 24.73100 46.40278 35936 ft 425 kts 244°
2026-05-06 16:30 24.70977 46.35414 35939 ft 425 kts 244°
2026-05-06 16:30 24.68000 46.28603 35940 ft 425 kts 244°
2026-05-06 16:31 24.65433 46.22738 35942 ft 425 kts 244°
2026-05-06 16:31 24.62870 46.16890 35928 ft 425 kts 244°
2026-05-06 16:32 24.60312 46.11060 35934 ft 425 kts 244°
2026-05-06 16:32 24.57742 46.05213 35937 ft 425 kts 244°
2026-05-06 16:33 24.55180 45.99388 35935 ft 425 kts 243°
2026-05-06 16:34 24.51322 45.90633 35929 ft 426 kts 243°
2026-05-06 16:34 24.48740 45.84781 35931 ft 426 kts 243°
2026-05-06 16:35 24.46157 45.78936 35929 ft 426 kts 243°
2026-05-06 16:35 24.43562 45.73079 35928 ft 426 kts 243°
2026-05-06 16:36 24.40964 45.67237 35933 ft 426 kts 243°
2026-05-06 16:36 24.38381 45.61432 35933 ft 425 kts 243°
2026-05-06 16:37 24.35781 45.55594 35930 ft 426 kts 243°
2026-05-06 16:37 24.33182 45.49766 35939 ft 426 kts 243°
2026-05-06 16:38 24.30580 45.43936 35936 ft 426 kts 243°
2026-05-06 16:38 24.27972 45.38103 35937 ft 425 kts 243°
2026-05-06 16:39 24.25376 45.32302 35941 ft 425 kts 243°
2026-05-06 16:39 24.22768 45.26483 35942 ft 425 kts 243°
2026-05-06 16:40 24.20147 45.20641 35942 ft 425 kts 243°
2026-05-06 16:40 24.17546 45.14853 35947 ft 426 kts 243°
2026-05-06 16:41 24.14919 45.09011 35952 ft 427 kts 243°
2026-05-06 16:41 24.12296 45.03186 35957 ft 428 kts 243°
2026-05-06 16:42 24.09669 44.97362 35964 ft 429 kts 243°
2026-05-06 16:42 24.07036 44.91529 35953 ft 430 kts 243°
2026-05-06 16:43 24.04379 44.85650 35953 ft 430 kts 243°
2026-05-06 16:43 24.01728 44.79794 35957 ft 430 kts 243°
2026-05-06 16:44 23.99066 44.73920 35939 ft 429 kts 243°
2026-05-06 16:44 23.96426 44.68099 35962 ft 429 kts 243°
2026-05-06 16:45 23.93763 44.62236 35956 ft 430 kts 243°
2026-05-06 16:45 23.91357 44.56268 35957 ft 431 kts 248°
2026-05-06 16:46 23.89220 44.50133 35945 ft 431 kts 248°
2026-05-06 16:46 23.87086 44.44020 35941 ft 430 kts 248°
2026-05-06 16:47 23.84947 44.37928 35945 ft 430 kts 247°
2026-05-06 16:47 23.82801 44.31840 35938 ft 430 kts 247°
2026-05-06 16:48 23.80652 44.25757 35940 ft 430 kts 247°
2026-05-06 16:48 23.78498 44.19668 35943 ft 429 kts 247°
2026-05-06 16:49 23.76353 44.13611 35929 ft 428 kts 247°
2026-05-06 16:49 23.74214 44.07581 35917 ft 427 kts 247°
2026-05-06 16:50 23.72062 44.01521 35943 ft 426 kts 247°
2026-05-06 16:50 23.69932 43.95533 35926 ft 426 kts 247°
2026-05-06 16:51 23.67787 43.89512 35928 ft 426 kts 247°
2026-05-06 16:51 23.65641 43.83497 35919 ft 426 kts 247°
2026-05-06 16:52 23.63500 43.77502 35918 ft 426 kts 247°
2026-05-06 16:52 23.61342 43.71467 35932 ft 425 kts 247°
2026-05-06 16:53 23.59195 43.65478 35944 ft 426 kts 247°
2026-05-06 16:53 23.57040 43.59466 35941 ft 426 kts 247°
2026-05-06 16:54 23.54885 43.53468 35940 ft 426 kts 247°
2026-05-06 16:54 23.52728 43.47472 35952 ft 426 kts 247°
2026-05-06 16:55 23.50553 43.41435 35968 ft 426 kts 247°
2026-05-06 16:55 23.48386 43.35426 35949 ft 426 kts 247°
2026-05-06 16:56 23.46224 43.29436 35963 ft 425 kts 247°
2026-05-06 16:56 23.44064 43.23466 35977 ft 425 kts 247°
2026-05-06 16:57 23.41906 43.17505 35978 ft 424 kts 247°
2026-05-06 16:57 23.39743 43.11544 35971 ft 423 kts 247°
2026-05-06 16:58 23.37576 43.05589 35975 ft 422 kts 247°
2026-05-06 16:58 23.35438 42.99721 35991 ft 421 kts 246°
2026-05-06 16:59 23.33277 42.93796 35976 ft 421 kts 246°
2026-05-06 16:59 23.31120 42.87888 35978 ft 420 kts 246°
2026-05-06 17:00 23.28958 42.81975 35983 ft 420 kts 246°
2026-05-06 17:00 23.26799 42.76078 35976 ft 420 kts 247°
2026-05-06 17:01 23.24629 42.70157 35986 ft 421 kts 247°
2026-05-06 17:01 23.22468 42.64271 35979 ft 422 kts 246°
2026-05-06 17:02 23.20275 42.58304 35989 ft 423 kts 246°
2026-05-06 17:02 23.18097 42.52386 35979 ft 424 kts 246°
2026-05-06 17:03 23.15910 42.46451 35958 ft 424 kts 246°
2026-05-06 17:03 23.13719 42.40509 35978 ft 424 kts 246°
2026-05-06 17:04 23.11521 42.34541 35979 ft 424 kts 247°
2026-05-06 17:04 23.09401 42.28602 35977 ft 424 kts 247°
2026-05-06 17:05 23.07276 42.22618 35972 ft 424 kts 247°
2026-05-06 17:05 23.05146 42.16646 35982 ft 424 kts 247°
2026-05-06 17:06 23.03013 42.10683 35955 ft 424 kts 247°
2026-05-06 17:06 23.00874 42.04718 35966 ft 423 kts 247°
2026-05-06 17:07 22.98770 41.98854 35974 ft 423 kts 247°
2026-05-06 17:07 22.96625 41.92882 35977 ft 423 kts 247°
2026-05-06 17:08 22.94498 41.86975 35968 ft 422 kts 247°
2026-05-06 17:08 22.92355 41.81033 35973 ft 422 kts 247°
2026-05-06 17:09 22.90215 41.75106 35966 ft 422 kts 247°
2026-05-06 17:09 22.88083 41.69206 35973 ft 422 kts 247°
2026-05-06 17:10 22.85942 41.63288 35974 ft 422 kts 247°
2026-05-06 17:10 22.83786 41.57336 35984 ft 422 kts 247°
2026-05-06 17:11 22.81638 41.51416 35995 ft 422 kts 247°
2026-05-06 17:11 22.79492 41.45506 35984 ft 422 kts 247°
2026-05-06 17:12 22.77344 41.39599 35969 ft 422 kts 247°
2026-05-06 17:12 22.75184 41.33672 36007 ft 422 kts 246°
2026-05-06 17:13 22.73030 41.27771 35987 ft 422 kts 246°
2026-05-06 17:13 22.70870 41.21858 35993 ft 422 kts 246°
2026-05-06 17:14 22.68708 41.15943 35994 ft 422 kts 246°
2026-05-06 17:14 22.66549 41.10047 36003 ft 422 kts 246°
2026-05-06 17:15 22.64384 41.04158 35983 ft 422 kts 246°
2026-05-06 17:15 22.62601 40.99309 35996 ft 421 kts 246°
2026-05-06 17:16 22.60432 40.93416 35998 ft 421 kts 246°
2026-05-06 17:16 22.58257 40.87512 36007 ft 421 kts 246°
2026-05-06 17:17 22.56098 40.81665 36001 ft 421 kts 246°
2026-05-06 17:17 22.53929 40.75801 35999 ft 420 kts 246°
2026-05-06 17:18 22.51751 40.69918 36003 ft 420 kts 246°
2026-05-06 17:18 22.49581 40.64060 36007 ft 421 kts 246°
2026-05-06 17:19 22.47398 40.58176 35882 ft 425 kts 246°
2026-05-06 17:19 22.46288 40.55187 35530 ft 428 kts 246°
2026-05-06 17:19 22.45182 40.52213 35055 ft 429 kts 246°
2026-05-06 17:19 22.44069 40.49216 34588 ft 427 kts 246°
2026-05-06 17:20 22.42961 40.46236 34052 ft 427 kts 246°
2026-05-06 17:20 22.41844 40.43237 33289 ft 429 kts 246°
2026-05-06 17:20 22.40737 40.40269 32490 ft 433 kts 246°
2026-05-06 17:20 22.39602 40.37228 31646 ft 437 kts 246°
2026-05-06 17:21 22.38453 40.34148 30834 ft 441 kts 246°
2026-05-06 17:21 22.37313 40.31094 30023 ft 444 kts 247°
2026-05-06 17:21 22.36149 40.27976 29091 ft 446 kts 247°
2026-05-06 17:21 22.34989 40.24870 28202 ft 446 kts 247°
2026-05-06 17:22 22.33825 40.21755 27322 ft 445 kts 247°
2026-05-06 17:22 22.32676 40.18684 26487 ft 445 kts 246°
2026-05-06 17:22 22.31510 40.15571 25650 ft 446 kts 246°
2026-05-06 17:22 22.30344 40.12458 24926 ft 444 kts 246°
2026-05-06 17:23 22.29197 40.09398 24252 ft 442 kts 246°
2026-05-06 17:23 22.28041 40.06316 23584 ft 439 kts 246°
2026-05-06 17:23 22.26905 40.03293 22809 ft 437 kts 246°
2026-05-06 17:23 22.25585 40.00341 22006 ft 432 kts 238°
2026-05-06 17:24 22.23963 39.97719 21300 ft 430 kts 234°
2026-05-06 17:24 22.22232 39.95072 20555 ft 428 kts 234°
2026-05-06 17:24 22.20557 39.92451 19848 ft 427 kts 235°
2026-05-06 17:24 22.18903 39.89776 19148 ft 426 kts 235°
2026-05-06 17:25 22.17281 39.87119 18460 ft 424 kts 235°
2026-05-06 17:25 22.15675 39.84481 17722 ft 423 kts 235°
2026-05-06 17:25 22.14048 39.81821 16961 ft 421 kts 235°
2026-05-06 17:25 22.12441 39.79195 16422 ft 415 kts 236°
2026-05-06 17:26 22.10883 39.76650 15985 ft 407 kts 235°
2026-05-06 17:26 22.09335 39.74123 15613 ft 398 kts 235°
2026-05-06 17:26 22.07832 39.71670 15363 ft 386 kts 235°
2026-05-06 17:26 22.06363 39.69274 15110 ft 376 kts 235°
2026-05-06 17:27 22.04957 39.66982 14988 ft 363 kts 235°
2026-05-06 17:27 22.03584 39.64745 14919 ft 349 kts 235°
2026-05-06 17:27 22.02280 39.62621 14898 ft 334 kts 235°
2026-05-06 17:27 22.01014 39.60559 14888 ft 320 kts 235°
2026-05-06 17:28 21.99827 39.58628 14880 ft 306 kts 235°
2026-05-06 17:28 21.98670 39.56746 14876 ft 298 kts 235°
2026-05-06 17:28 21.97517 39.54872 14881 ft 298 kts 235°
2026-05-06 17:28 21.96380 39.53024 14888 ft 298 kts 235°
2026-05-06 17:29 21.95227 39.51152 14886 ft 298 kts 235°
2026-05-06 17:29 21.94105 39.49298 14883 ft 299 kts 238°
2026-05-06 17:29 21.93123 39.47293 14680 ft 303 kts 243°
2026-05-06 17:29 21.92240 39.45258 14384 ft 302 kts 243°
2026-05-06 17:30 21.91366 39.43209 14013 ft 300 kts 243°
2026-05-06 17:30 21.90484 39.41160 13685 ft 299 kts 243°
2026-05-06 17:30 21.89606 39.39146 13294 ft 298 kts 243°
2026-05-06 17:30 21.88716 39.37124 12910 ft 297 kts 243°
2026-05-06 17:31 21.87838 39.35144 12547 ft 296 kts 243°
2026-05-06 17:31 21.86957 39.33161 12146 ft 288 kts 242°
2026-05-06 17:31 21.86103 39.31243 11759 ft 279 kts 242°
2026-05-06 17:31 21.85273 39.29383 11368 ft 270 kts 242°
2026-05-06 17:32 21.84480 39.27608 11004 ft 262 kts 242°
2026-05-06 17:32 21.83694 39.25849 10631 ft 255 kts 242°
2026-05-06 17:32 21.82854 39.24202 10246 ft 245 kts 226°
2026-05-06 17:32 21.81527 39.23161 9889 ft 238 kts 199°
2026-05-06 17:33 21.79907 39.22809 9472 ft 239 kts 182°
2026-05-06 17:33 21.78275 39.23070 8960 ft 243 kts 163°
2026-05-06 17:33 21.76673 39.23696 8516 ft 247 kts 161°
2026-05-06 17:33 21.75044 39.24367 8044 ft 253 kts 161°
2026-05-06 17:34 21.73365 39.25048 7590 ft 258 kts 161°
2026-05-06 17:34 21.71691 39.25722 7185 ft 261 kts 161°
2026-05-06 17:34 21.69974 39.26409 6768 ft 264 kts 161°
2026-05-06 17:34 21.68233 39.27103 6365 ft 266 kts 161°
2026-05-06 17:35 21.66500 39.27791 5955 ft 268 kts 161°
2026-05-06 17:35 21.64732 39.28491 5539 ft 271 kts 161°
2026-05-06 17:35 21.62939 39.29200 5090 ft 274 kts 160°
2026-05-06 17:36 21.59337 39.30612 4263 ft 280 kts 160°
2026-05-06 17:36 21.57494 39.31333 3839 ft 283 kts 160°
2026-05-06 17:36 21.55642 39.32058 3413 ft 286 kts 159°
2026-05-06 17:36 21.53761 39.32794 3079 ft 286 kts 159°
2026-05-06 17:37 21.51922 39.33515 3031 ft 274 kts 159°
2026-05-06 17:37 21.50194 39.34192 3024 ft 260 kts 159°
2026-05-06 17:37 21.48533 39.34839 3019 ft 244 kts 159°
2026-05-06 17:37 21.46996 39.35443 3021 ft 232 kts 160°
2026-05-06 17:38 21.45474 39.36042 3047 ft 233 kts 160°
2026-05-06 17:38 21.43951 39.36638 3108 ft 231 kts 160°
2026-05-06 17:38 21.42438 39.37232 3060 ft 235 kts 160°
2026-05-06 17:38 21.40871 39.37805 3040 ft 234 kts 171°
2026-05-06 17:39 21.39325 39.37573 3052 ft 225 kts 211°
2026-05-06 17:39 21.38249 39.36408 3078 ft 226 kts 243°
2026-05-06 17:39 21.37822 39.34782 3056 ft 228 kts 269°
2026-05-06 17:39 21.38064 39.33111 3046 ft 228 kts 295°
2026-05-06 17:40 21.38868 39.31652 3062 ft 228 kts 304°
2026-05-06 17:40 21.39771 39.30249 3045 ft 231 kts 305°
2026-05-06 17:40 21.40714 39.28849 3031 ft 230 kts 314°
2026-05-06 17:40 21.42005 39.27913 3055 ft 224 kts 336°
2026-05-06 17:41 21.43423 39.27249 3013 ft 217 kts 338°
2026-05-06 17:41 21.44777 39.26685 3021 ft 199 kts 340°
2026-05-06 17:41 21.46009 39.26195 3023 ft 183 kts 341°
2026-05-06 17:41 21.47194 39.25728 3022 ft 179 kts 341°
2026-05-06 17:42 21.48350 39.25274 3030 ft 174 kts 340°
2026-05-06 17:42 21.49489 39.24826 3028 ft 175 kts 341°
2026-05-06 17:42 21.50633 39.24374 3037 ft 176 kts 341°
2026-05-06 17:42 21.51796 39.23918 3000 ft 180 kts 341°
2026-05-06 17:43 21.52979 39.23451 2755 ft 178 kts 340°
2026-05-06 17:43 21.54106 39.23004 2559 ft 172 kts 341°
2026-05-06 17:43 21.55232 39.22562 2328 ft 173 kts 341°
2026-05-06 17:43 21.56356 39.22117 2124 ft 170 kts 342°
2026-05-06 17:44 21.57405 39.21704 1889 ft 153 kts 341°
2026-05-06 17:44 21.58371 39.21323 1711 ft 146 kts 342°
2026-05-06 17:44 21.59332 39.20943 1538 ft 146 kts 343°
2026-05-06 17:44 21.60274 39.20572 1360 ft 147 kts 343°
2026-05-06 17:45 21.61236 39.20192 1156 ft 146 kts 341°
2026-05-06 17:45 21.62192 39.19816 972 ft 145 kts 341°
2026-05-06 17:45 21.63166 39.19431 801 ft 156 kts 343°
2026-05-06 17:45 21.64187 39.19029 621 ft 156 kts 339°
2026-05-06 17:46 21.65173 39.18636 395 ft 146 kts 340°
2026-05-06 17:46 21.66138 39.18255 231 ft 150 kts 339°
2026-05-06 17:46 21.67115 39.17865 48 ft 147 kts 339°
2026-05-06 17:46 21.67996 39.17513 37 ft 121 kts 340°
2026-05-06 17:47 21.68676 39.17248 30 ft 86 kts 340°
2026-05-06 17:47 21.69117 39.17075 31 ft 51 kts 340°
2026-05-06 17:47 21.69333 39.16990 31 ft 16 kts 340°
2026-05-06 17:47 21.69402 39.16958 29 ft 10 kts 322°
2026-05-06 17:48 21.69420 39.16893 29 ft 10 kts 259°
2026-05-06 17:48 21.69399 39.16827 29 ft 9 kts 250°
2026-05-06 17:48 21.69368 39.16774 28 ft 9 kts 221°
2026-05-06 17:48 21.69312 39.16762 29 ft 9 kts 165°
2026-05-06 17:49 21.69255 39.16785 29 ft 9 kts 159°
2026-05-06 17:49 21.69200 39.16808 29 ft 9 kts 159°
2026-05-06 17:49 21.69121 39.16839 30 ft 19 kts 159°
2026-05-06 17:49 21.68987 39.16892 30 ft 21 kts 160°
2026-05-06 17:50 21.68851 39.16945 31 ft 21 kts 160°
2026-05-06 17:50 21.68716 39.16997 32 ft 21 kts 160°
2026-05-06 17:50 21.68580 39.17050 32 ft 21 kts 160°
2026-05-06 17:50 21.68446 39.17104 32 ft 21 kts 159°
2026-05-06 17:51 21.68310 39.17158 33 ft 21 kts 160°
2026-05-06 17:51 21.68192 39.17205 34 ft 11 kts 160°
2026-05-06 17:51 21.68122 39.17232 34 ft 11 kts 160°
2026-05-06 17:51 21.68069 39.17253 35 ft 5 kts 163°
2026-05-06 17:52 21.68037 39.17256 35 ft 5 kts 183°
2026-05-06 17:52 21.68009 39.17242 34 ft 5 kts 220°
2026-05-06 17:52 21.67993 39.17211 35 ft 5 kts 246°
2026-05-06 17:52 21.67980 39.17178 35 ft 5 kts 246°
2026-05-06 17:53 21.67966 39.17142 35 ft 5 kts 246°
2026-05-06 17:53 21.67949 39.17098 35 ft 9 kts 250°
2026-05-06 17:53 21.67927 39.17033 35 ft 9 kts 250°
2026-05-06 17:53 21.67904 39.16967 35 ft 9 kts 250°
2026-05-06 17:54 21.67881 39.16901 35 ft 9 kts 250°
2026-05-06 17:54 21.67859 39.16836 35 ft 9 kts 250°
2026-05-06 17:54 21.67836 39.16770 35 ft 9 kts 250°
2026-05-06 17:54 21.67813 39.16705 35 ft 9 kts 250°
2026-05-06 17:55 21.67794 39.16653 35 ft 7 kts 242°
2026-05-06 17:55 21.67755 39.16626 35 ft 7 kts 191°
2026-05-06 17:55 21.67708 39.16634 35 ft 7 kts 164°
2026-05-06 17:55 21.67661 39.16650 35 ft 7 kts 161°
2026-05-06 17:56 21.67617 39.16668 36 ft 7 kts 159°
2026-05-06 17:56 21.67571 39.16687 36 ft 7 kts 159°
2026-05-06 17:56 21.67526 39.16705 36 ft 7 kts 159°
2026-05-06 17:56 21.67481 39.16723 36 ft 7 kts 159°
2026-05-06 17:57 21.67436 39.16742 36 ft 7 kts 159°
2026-05-06 17:57 21.67390 39.16760 36 ft 7 kts 159°
2026-05-06 17:57 21.67345 39.16776 37 ft 7 kts 169°
2026-05-06 17:57 21.67296 39.16781 37 ft 7 kts 175°
2026-05-06 17:58 21.67252 39.16783 37 ft 6 kts 167°
2026-05-06 17:58 21.67221 39.16809 37 ft 6 kts 121°
2026-05-06 17:58 21.67217 39.16852 37 ft 6 kts 99°
2026-05-06 17:58 21.67189 39.16878 37 ft 6 kts 159°
2026-05-06 17:59 21.67158 39.16887 37 ft 2 kts 168°
2026-05-06 17:59 21.67141 39.16891 38 ft 2 kts 168°
2026-05-06 17:59 21.67128 39.16893 38 ft 0 kts 168°